Theta_e
334 334 342 342 337 339 337 336 336 340 340 341 342 341 341 341 339 336 334 328 318 319 317 329 330 330 330 325 326 328 328 327 327 327 327 324 317 312 311 312 318 329 316
335 341 343 342 340 337 339 337 338 339 340 340 341 340 339 336 334 331 325 320 329 325 322 335 333 333 326 321 325 324 325 324 323 321 318 314 312 311 313 317 317 320 323
343 344 341 345 340 340 340 339 339 340 339 339 339 334 335 333 326 317 317 328 338 333 333 337 336 333 327 325 321 323 320 318 316 314 315 327 316 316 317 319 320 323 315
344 344 343 343 340 340 342 340 338 336 336 336 335 324 328 322 315 312 316 334 337 336 337 338 336 332 325 319 314 313 313 315 316 318 329 330 330 327 330 327 324 323 322
343 343 342 336 341 342 337 337 336 336 336 337 328 327 318 311 310 310 313 330 335 336 336 336 335 328 318 312 313 317 320 322 322 327 330 331 334 331 332 332 333 331 331
343 342 335 335 342 340 337 338 339 337 337 336 329 326 311 311 310 310 311 314 330 335 335 330 323 316 314 314 318 322 324 324 325 328 330 328 334 322 324 328 331 332 332
342 342 336 336 343 341 335 334 339 335 339 334 328 324 312 312 312 311 314 320 326 326 321 317 314 315 318 318 321 322 323 324 329 329 330 330 331 320 319 328 330 330 332
341 341 339 341 341 331 327 325 326 333 335 332 332 326 315 313 313 313 313 318 318 315 314 315 318 320 322 323 323 323 324 324 329 330 329 329 322 320 325 323 321 326 328
341 340 337 334 327 327 322 322 320 321 321 330 336 331 319 315 315 315 315 314 314 316 319 321 322 324 324 322 321 321 322 323 329 327 325 326 318 326 327 327 325 322 321
340 340 339 339 332 323 323 322 318 320 323 338 336 334 322 316 316 316 317 317 318 320 321 329 325 323 322 321 321 321 320 320 322 318 322 324 326 328 327 326 324 321 319
339 340 339 338 335 332 332 324 320 321 328 336 337 335 328 327 321 318 317 319 320 320 322 329 325 323 322 321 321 321 320 318 317 319 324 321 325 323 324 323 319 318 317
337 339 339 338 336 332 328 329 326 325 326 335 335 334 331 332 332 331 321 318 320 322 327 328 324 323 322 322 322 322 320 316 315 321 324 317 322 323 319 315 313 311 307
337 336 334 333 335 333 329 330 333 334 333 333 334 333 331 332 332 330 330 321 319 321 329 326 323 323 323 322 322 322 316 311 316 320 323 322 322 320 311 310 307 306 305
338 337 337 335 334 332 332 331 333 332 331 331 331 331 330 329 331 332 333 332 330 326 329 326 323 323 323 321 322 321 316 310 315 319 322 318 318 311 308 306 305 305 305
335 338 339 338 338 336 336 337 338 337 335 330 325 326 330 329 331 331 332 333 330 329 327 320 322 322 323 321 322 321 318 310 311 317 321 311 308 307 306 305 305 304 304
339 337 335 335 336 339 339 339 338 337 337 336 332 327 322 326 327 331 331 329 329 329 325 320 320 322 322 321 322 321 318 310 308 312 318 312 306 306 305 305 304 303 302
332 337 341 338 334 334 335 337 337 338 337 337 336 334 330 324 322 326 331 330 329 329 327 324 320 321 322 322 322 322 318 310 307 308 309 315 306 304 304 304 303 302 302
320 323 330 337 337 335 335 334 334 335 337 337 336 336 335 333 328 323 329 330 329 328 325 325 322 321 323 322 322 323 319 310 306 307 304 304 305 306 303 303 302 301 301
318 318 319 321 333 336 334 335 335 335 335 336 337 336 335 336 333 331 326 327 329 327 324 324 324 322 324 323 323 323 321 312 306 305 304 304 304 303 303 302 302 301 300
316 317 317 317 319 330 336 333 335 335 334 334 335 335 335 335 335 334 332 325 326 326 322 324 325 323 325 325 324 324 323 313 306 305 304 304 304 303 302 302 301 301 301
318 318 318 317 317 318 330 336 332 334 332 334 330 332 334 332 332 331 332 332 328 324 322 322 326 324 325 326 324 322 322 314 307 306 305 304 304 303 302 302 302 302 301
316 316 317 317 318 318 318 329 326 331 332 333 327 325 330 332 330 331 331 331 332 330 324 323 328 326 325 325 324 318 311 311 309 306 305 304 303 303 302 302 302 302 302
312 312 313 315 316 317 318 318 325 330 330 324 322 322 323 326 329 330 330 330 330 331 329 328 330 327 324 326 325 319 314 314 309 308 307 305 304 303 303 303 303 303 302
313 312 312 313 313 315 316 316 317 327 327 322 319 319 320 321 323 330 329 329 328 328 329 329 330 328 325 326 324 324 322 315 310 308 308 307 305 304 303 303 303 302 302
312 313 314 313 313 313 313 313 315 325 328 328 329 327 320 319 319 320 324 328 328 330 329 328 329 329 326 326 326 325 323 319 314 311 308 309 307 305 304 303 303 302 302
313 313 312 313 314 313 313 312 312 313 323 327 328 328 325 324 320 320 322 325 326 327 329 328 328 330 328 327 327 326 325 324 319 315 309 308 308 307 305 303 303 302 301
Wind_Speed
16 17 19 17 17 17 15 14 11 9 7 7 8 6 6 6 4 4 3 3 2 4 10 12 9 7 4 4 4 3 2 2 1 3 6 7 7 5 5 6 9 6 8
19 17 19 16 16 17 14 14 13 12 9 8 8 6 6 5 4 4 1 5 8 11 13 11 10 11 7 5 3 3 2 2 2 3 3 4 5 6 7 7 9 5 8
20 19 20 18 18 17 15 14 14 12 9 8 6 5 6 3 3 0 9 13 6 10 11 10 11 8 4 4 4 3 2 2 2 3 6 8 8 9 9 10 10 8 8
20 19 19 19 18 17 17 15 12 10 8 6 5 3 5 2 3 6 13 13 11 14 10 13 11 4 3 3 4 7 7 6 6 7 7 7 7 10 9 9 8 8 7
18 17 18 20 20 18 16 15 12 9 8 7 5 5 5 6 6 8 13 15 14 12 10 9 4 1 1 5 9 9 8 7 7 8 7 6 6 5 8 7 6 4 4
17 16 17 19 18 16 15 14 12 10 8 9 5 7 8 9 9 9 12 12 13 13 10 7 5 3 5 7 8 8 7 7 8 6 6 5 6 4 2 3 4 5 6
17 15 15 18 17 17 15 14 14 11 10 9 8 8 9 10 10 11 13 14 13 12 9 7 6 6 6 6 5 5 5 5 6 5 5 5 2 3 3 3 2 3 6
15 16 15 17 16 15 14 13 13 13 12 9 11 8 7 9 10 11 12 13 12 11 10 8 8 7 6 5 4 4 3 4 5 3 3 3 3 4 2 2 3 2 2
14 15 14 15 15 14 12 11 11 14 13 12 12 9 8 8 9 10 10 11 11 11 10 9 7 5 4 4 4 4 3 4 4 2 3 3 5 2 1 2 2 2 3
14 14 14 14 14 14 13 11 11 11 14 14 12 10 10 10 9 9 10 9 10 10 9 7 5 4 3 4 4 3 2 2 2 1 2 1 3 3 3 4 4 4 6
14 14 14 14 14 13 11 10 10 11 12 16 15 13 11 11 11 11 10 10 10 9 9 7 5 4 4 3 3 2 1 1 1 1 2 3 6 6 7 6 7 6 6
16 16 15 15 14 14 13 11 11 11 13 14 16 15 13 13 11 11 12 11 11 11 9 9 6 5 4 3 2 2 2 3 2 2 3 4 5 6 6 7 9 3 3
15 16 17 17 16 16 15 14 12 13 13 15 16 16 16 15 15 13 11 13 13 13 10 9 8 7 7 5 4 4 4 4 2 3 5 6 8 8 7 7 5 2 1
16 16 17 17 18 18 16 16 15 16 15 15 16 17 17 17 16 14 13 13 12 12 11 11 10 10 9 7 6 6 6 5 3 5 7 11 11 9 8 5 3 3 2
16 17 18 18 18 18 19 18 18 18 18 18 19 19 18 18 17 16 15 17 14 13 13 14 13 12 11 9 8 8 7 7 5 6 6 10 10 9 7 5 4 3 3
16 17 17 19 19 21 21 21 21 20 18 20 21 22 22 20 19 17 16 19 16 15 16 16 16 14 14 12 11 10 9 9 8 8 7 8 10 9 8 6 5 5 4
15 15 18 18 19 20 22 23 22 22 20 21 22 23 23 23 23 22 18 18 18 16 18 19 19 17 17 15 13 11 11 10 10 9 9 8 10 10 10 9 8 7 6
19 18 18 19 23 24 25 24 23 24 24 23 24 24 24 25 25 24 22 20 19 19 22 22 21 19 19 17 15 13 13 13 12 11 12 12 12 10 11 12 10 9 8
26 25 27 25 23 24 27 29 28 28 26 24 25 24 24 27 26 26 25 23 21 21 24 25 24 22 21 19 16 15 15 15 15 15 15 15 15 15 12 13 11 10 10
25 25 28 29 29 26 24 29 32 32 31 30 30 30 30 28 27 28 29 28 25 24 27 29 26 25 23 20 18 17 18 18 18 18 18 18 18 17 16 15 13 13 12
24 25 24 26 28 28 26 30 34 39 38 37 35 36 34 31 32 30 29 31 30 31 31 31 28 28 27 24 21 19 20 21 21 21 21 20 21 20 18 17 16 15 15
24 26 27 27 28 29 30 29 34 35 40 42 39 36 37 37 36 36 35 35 33 33 34 34 34 33 31 29 26 18 11 17 25 24 24 23 23 22 21 20 20 18 17
12 19 25 30 32 32 33 31 30 29 34 38 41 40 38 38 42 42 39 38 36 36 37 38 37 36 35 33 33 18 9 11 12 21 28 27 26 26 24 23 23 22 21
3 3 7 14 23 32 34 35 33 30 35 40 45 45 44 45 43 45 44 40 41 38 39 39 39 38 37 37 37 36 31 15 9 8 20 26 28 28 27 28 26 26 24
7 6 5 5 7 13 24 33 32 27 27 26 28 32 37 43 45 43 43 46 45 42 40 41 42 42 42 41 39 39 38 34 28 18 12 19 26 30 30 30 29 28 26
8 8 8 8 8 8 10 17 26 32 27 25 26 28 31 33 38 39 39 40 45 45 43 41 42 45 46 45 43 43 42 38 36 32 23 19 20 24 30 30 29 29 27
Wind_Direction
174 173 158 168 169 172 172 171 170 167 170 177 182 201 207 222 247 275 307 336 33 101 125 127 132 164 152 113 178 186 195 211 298 335 343 334 334 2 28 46 70 74 109
168 168 159 161 161 161 162 160 168 171 170 174 189 202 209 228 251 279 6 128 118 108 136 133 132 124 94 70 178 186 222 277 318 342 356 21 41 60 56 53 95 80 89
162 164 161 166 158 157 162 166 170 176 187 182 182 202 208 231 259 328 130 136 111 137 143 141 143 129 72 66 86 130 123 99 84 82 74 75 68 71 63 60 70 76 88
161 164 168 170 162 162 169 174 175 185 187 163 172 125 156 169 162 136 143 139 125 139 134 141 146 113 40 38 99 113 109 105 101 101 84 82 71 67 59 58 60 72 78
161 164 175 173 169 171 181 177 175 179 161 155 141 128 131 130 134 139 152 159 153 147 147 152 156 194 62 106 113 110 104 99 94 89 95 90 94 78 68 64 45 62 69
163 164 187 169 165 169 178 175 174 178 179 179 176 148 137 132 132 136 154 171 164 158 167 179 188 170 122 120 112 107 98 100 90 97 92 80 66 65 76 64 71 69 59
164 167 179 172 171 174 183 186 179 188 182 188 170 156 142 135 130 130 142 143 152 167 176 174 157 137 120 119 113 117 108 111 115 102 86 80 62 32 92 154 117 131 114
170 168 180 174 176 177 186 200 201 194 193 189 172 156 151 144 140 139 143 153 157 159 156 149 144 135 127 126 126 129 126 115 101 102 93 71 27 41 36 257 236 222 201
178 172 183 182 183 186 191 199 208 208 200 189 181 171 167 160 151 149 150 154 155 158 155 153 152 146 140 134 128 130 131 126 120 140 101 68 30 72 204 292 316 305 289
182 186 183 183 191 190 193 199 199 204 180 182 194 188 184 172 169 166 165 167 167 165 165 167 164 160 152 142 137 134 128 127 148 87 85 23 107 161 216 271 315 319 309
186 190 188 190 193 194 198 206 201 200 194 189 201 203 206 184 181 183 183 179 180 179 180 186 187 182 166 157 150 146 154 187 224 142 108 157 203 240 256 273 301 299 302
200 193 196 196 199 202 205 211 209 209 203 195 201 212 197 192 193 188 199 192 195 192 188 208 206 201 195 201 214 225 235 257 245 171 190 223 231 231 267 286 306 299 315
211 211 211 206 207 210 213 212 211 210 206 208 207 207 200 198 209 202 207 205 205 205 204 210 217 217 219 223 237 251 248 256 212 186 205 197 227 254 283 288 287 283 289
221 221 219 219 221 218 219 225 226 226 225 215 214 209 208 208 210 209 211 208 206 207 210 215 222 229 231 233 245 252 262 262 218 178 222 213 248 270 276 262 240 251 271
227 224 226 223 225 226 224 227 230 235 240 236 232 225 217 216 219 216 216 216 210 214 216 224 229 233 234 239 247 257 264 262 234 188 206 225 250 261 263 241 235 248 270
236 242 237 231 229 227 230 234 234 242 241 241 240 237 237 228 226 222 219 222 217 221 225 229 231 233 234 239 248 258 261 256 240 215 195 224 241 253 252 245 240 244 253
240 240 240 246 248 245 241 240 239 237 238 243 241 244 242 237 233 230 222 221 222 224 231 234 233 233 233 238 247 257 259 254 244 231 219 211 237 243 243 243 242 243 263
247 245 242 238 245 250 250 250 248 248 243 243 243 245 246 245 241 235 229 225 224 225 233 237 236 234 232 236 244 254 258 255 246 235 237 233 232 236 237 243 242 248 254
252 252 253 248 240 242 249 254 252 250 249 246 249 251 250 248 245 239 235 230 225 226 235 236 237 234 233 235 242 253 257 254 247 243 242 241 241 234 233 240 242 244 253
253 255 252 252 248 244 243 252 252 250 248 247 248 246 248 247 249 244 241 238 233 231 236 235 236 233 231 233 241 253 258 252 246 243 240 241 243 239 236 243 238 241 251
256 253 252 249 249 249 239 240 247 250 251 250 248 247 248 249 250 250 248 243 237 236 237 238 236 234 229 229 237 243 252 250 246 243 240 241 242 239 238 240 240 247 250
257 254 249 247 246 245 245 241 246 248 249 250 248 246 245 247 249 250 248 246 238 238 236 235 233 232 228 228 230 234 238 251 245 241 241 239 238 238 239 239 242 247 253
258 255 250 245 241 241 242 245 242 243 247 252 251 250 249 249 247 247 247 249 246 241 239 237 234 232 231 231 230 225 211 225 226 238 238 237 235 238 239 242 244 248 251
17 307 272 260 252 245 243 243 243 239 245 252 255 256 252 250 248 246 249 248 250 247 242 242 239 234 230 234 229 230 228 227 207 237 237 238 237 238 239 242 245 248 251
4 348 326 298 276 258 251 248 244 242 245 252 254 257 259 259 257 255 253 249 248 250 248 246 242 235 230 233 236 233 233 235 240 234 239 238 238 239 241 242 244 247 250
339 323 313 305 297 285 272 258 251 249 249 249 249 251 255 259 260 258 256 254 247 248 248 248 248 243 237 233 235 237 238 238 238 239 234 240 243 240 236 237 242 244 249